KTXEAGLE7 Weather Reports


time (UTC)temp
C
wind
direction
speed
KPH
gust
KPH
rain 1hr
cm
rain 24hr
cm
rain mn
cm
humidity
%
barometer
mb
20260506000012 26 151 9.7 27.4 0.00 0.00 0.00 86 1007.0
20260505234513 26 167 16.1 29.0 0.00 0.00 0.00 85 1006.9
20260505233009 26 188 16.1 33.8 0.00 0.00 0.00 84 1006.8
20260505231514 26 152 19.3 37.0 0.00 0.00 0.00 84 1006.8
20260505230020 26 178 19.3 37.0 0.00 0.00 0.00 84 1006.8
20260505224512 26 169 17.7 35.4 0.00 0.00 0.00 83 1006.8
20260505223006 26 185 16.1 32.2 0.00 0.00 0.00 84 1007.0
20260505221506 26 178 22.5 35.4 0.00 0.00 0.00 84 1007.1
20260505220004 26 149 16.1 30.6 0.00 0.00 0.00 85 1007.2
20260505214502 26 172 14.5 27.4 0.00 0.00 0.00 85 1007.6
20260505213101 26 189 20.9 33.8 0.00 0.00 0.00 84 1007.7
20260505211600 26 167 24.1 33.8 0.00 0.00 0.00 84 1007.7
20260505210058 26 184 19.3 35.4 0.00 0.00 0.00 84 1007.9
20260505204555 26 187 22.5 35.4 0.00 0.00 0.00 85 1008.2
20260505203112 26 196 27.4 40.2 0.00 0.00 0.00 84 1008.4
20260505201600 26 168 22.5 35.4 0.00 0.00 0.00 85 1008.7
20260505200054 26 180 20.9 33.8 0.00 0.00 0.00 86 1009.0
20260505194549 26 173 19.3 32.2 0.00 0.00 0.00 86 1008.9
20260505193048 26 183 19.3 30.6 0.00 0.00 0.00 87 1009.2
20260505191552 26 194 19.3 30.6 0.00 0.00 0.00 87 1009.3
20260505190044 26 184 16.1 24.1 0.00 0.00 0.00 88 1009.4
20260505184544 25 195 12.9 24.1 0.00 0.00 0.00 88 1009.3
20260505183043 26 179 12.9 30.6 0.00 0.00 0.00 89 1009.4
20260505181545 25 185 20.9 32.2 0.00 0.00 0.00 87 1009.5
20260505180041 25 196 16.1 33.8 0.00 0.00 0.00 87 1009.7
20260505174544 26 185 17.7 32.2 0.00 0.00 0.00 87 1010.0
20260505173039 25 178 17.7 29.0 0.00 0.00 0.00 88 1009.9
20260505171543 25 213 27.4 38.6 0.00 0.00 0.00 87 1010.0
20260505170040 25 203 27.4 38.6 0.00 0.00 0.00 88 1010.0
20260505164531 25 180 20.9 32.2 0.00 0.00 0.00 90 1010.0
20260505163033 25 198 16.1 27.4 0.00 0.00 0.00 91 1010.0
20260505161527 25 204 16.1 29.0 0.00 0.00 0.00 91 1009.9
20260505153021 24 194 17.7 30.6 0.00 0.00 0.00 93 1009.9
20260505151520 23 211 14.5 30.6 0.00 0.00 0.00 94 1009.8
20260505130106 21 182 11.3 16.1 0.00 0.00 0.00 99 1009.7
20260505124558 21 162 8.0 16.1 0.00 0.00 0.00 99 1009.7
20260505123056 21 179 4.8 11.3 0.00 0.00 0.00 99 1009.7
20260505121615 20 172 3.2 8.0 0.00 0.00 0.00 99 1009.2
20260505120053 20 182 6.4 9.7 0.00 0.00 0.00 99 1009.1
20260505114551 20 164 3.2 9.7 0.00 0.00 0.00 99 1008.9
20260505113050 20 156 3.2 8.0 0.00 0.00 0.00 99 1009.0
20260505111549 20 154 4.8 9.7 0.00 0.00 0.00 98 1008.8
20260505101554 20 178 4.8 9.7 0.00 0.00 0.00 98 1009.0
20260505100045 20 163 4.8 8.0 0.00 0.00 0.00 98 1008.8
20260505094543 20 163 3.2 8.0 0.00 0.00 0.00 97 1009.4
20260505093044 20 173 6.4 8.0 0.00 0.00 0.00 97 1009.4
20260505091542 20 164 1.6 4.8 0.00 0.00 0.00 97 1009.2
20260505090055 20 187 1.6 6.4 0.00 0.00 0.00 97 1009.4
20260505084548 20 187 4.8 9.7 0.00 0.00 0.00 97 1009.4
20260505083039 20 165 1.6 8.0 0.00 0.00 0.00 96 1009.7
20260505081542 20 192 1.6 6.4 0.00 0.00 0.00 96 1010.0
20260505080034 20 192 4.8 12.9 0.00 0.00 0.00 96 1010.0
20260505074535 20 172 6.4 11.3 0.00 0.00 0.00 96 1009.8
20260505073037 20 158 6.4 12.9 0.00 0.00 0.00 96 1010.0
20260505071531 20 160 6.4 12.9 0.00 0.00 0.00 95 1010.0
20260505070029 20 168 9.7 17.7 0.00 0.00 0.00 95 1010.1
20260505064526 20 175 9.7 17.7 0.00 0.00 0.00 95 1010.3
20260505063026 20 176 8.0 19.3 0.00 0.00 0.00 95 1010.7
20260505061523 20 169 8.0 16.1 0.00 0.00 0.00 94 1010.6
20260505060029 20 165 8.0 14.5 0.00 0.00 0.00 95 1010.8
20260505054531 20 177 8.0 12.9 0.00 0.00 0.00 94 1011.0
20260505053017 20 192 4.8 11.3 0.00 0.00 0.00 94 1011.1
20260505051515 20 175 4.8 11.3 0.00 0.00 0.00 93 1011.3
20260505041511 20 155 4.8 11.3 0.00 0.00 0.00 91 1011.6
20260505040011 21 170 6.4 12.9 0.00 0.00 0.00 91 1011.4
20260505034509 21 167 8.0 14.5 0.00 0.00 0.00 90 1011.5
20260505033016 21 161 8.0 14.5 0.00 0.00 0.00 89 1011.8
20260505031509 21 160 8.0 16.1 0.00 0.00 0.00 89 1011.8
20260505030008 21 147 9.7 17.7 0.00 0.00 0.00 88 1011.6
20260505024507 21 168 9.7 20.9 0.00 0.00 0.00 88 1011.3
20260505023007 21 170 8.0 14.5 0.00 0.00 0.00 87 1011.3
20260505021507 21 146 8.0 17.7 0.00 0.00 0.00 86 1011.4
20260505020006 21 181 9.7 16.1 0.00 0.00 0.00 86 1011.2
20260505014509 22 163 8.0 14.5 0.00 0.00 0.00 85 1011.2
20260505013006 22 153 8.0 14.5 0.00 0.00 0.00 84 1011.0
20260505011506 22 185 11.3 17.7 0.00 0.00 0.00 82 1010.6
20260505010004 23 159 11.3 20.9 0.00 0.00 0.00 81 1010.9
20260505004505 23 185 8.0 22.5 0.00 0.00 0.00 79 1011.0
20260505003103 23 181 12.9 25.7 0.00 0.00 0.00 78 1010.8
20260505001559 23 173 14.5 25.7 0.00 0.00 0.00 77 1010.8